Regional Weather Roundup
Issued by NWS Green Bay, WI

Home | Current Version | Previous Version | Graphics & Text | Print | Product List | Glossary Off
Versions: 1 2 3 4 5 6 7 8 9 10 11 12 13 14 15 16 17 18 19 20 21 22 23 24 25 26 27 28 29 30 31 32 33 34 35 36 37 38 39 40 41 42 43 44 45 46 47 48 49 50

000
ASUS43 KGRB 041459
RWRGRB

NORTH-CENTRAL AND NORTHEAST WISCONSIN REGIONAL WEATHER ROUNDUP
NATIONAL WEATHER SERVICE GREEN BAY WI
1000 AM CDT MON MAY 04 2015

WIZ005-009-010>012-018-019-041600-
NORTH CENTRAL WISCONSIN

CITY           SKY/WX    TMP DP  RH WIND       PRES   REMARKS
IRONWOOD       SUNNY     54  37  54 N12       30.12R
MANITOWISH WTR NOT AVBL
ARBOR VITAE    NOT AVBL
EAGLE RIVER    NOT AVBL
LAND O LAKES   NOT AVBL
RHINELANDER    SUNNY     57  39  51 N9        30.11R
PHILLIPS       NOT AVBL
ANTIGO         NOT AVBL
TOMAHAWK       NOT AVBL
MERRILL        NOT AVBL
$$

WIZ013-073-041600-
NORTHEAST WISCONSIN

CITY           SKY/WX    TMP DP  RH WIND       PRES   REMARKS
IRON MOUNTAIN  SUNNY     60  40  47 NW12      30.06R
MARINETTE      MOSUNNY   63  43  48 N12G17    30.05R
$$

WIZ017-030-035>037-045-041600-
CENTRAL WISCONSIN

CITY           SKY/WX    TMP DP  RH WIND       PRES   REMARKS
MEDFORD        NOT AVBL
WAUSAU         SUNNY     61  40  45 N8        30.09R
MOSINEE        SUNNY     61  41  48 N8        30.11R
MARSHFIELD     SUNNY     63  40  42 N10       30.11R
WISC RAPIDS      N/A     64  39  39 N16       30.10R
STEVENS POINT  NOT AVBL
WAUPACA        NOT AVBL
SHAWANO        NOT AVBL
CLINTONVILLE   NOT AVBL
$$

WIZ038-039-048-051-041600-
FOX VALLEY

CITY           SKY/WX    TMP DP  RH WIND       PRES   REMARKS
NWS GREEN BAY  MOSUNNY   67  44  43 N12       30.05R
APPLETON       MOSUNNY   63  43  48 N12       30.06R
OSHKOSH        PTSUNNY   65  54  67 NE12      30.05R
FOND DU LAC    PTSUNNY   64  57  78 NE9       30.06R
$$

WIZ022-050-052-041600-
EAST CENTRAL WISCONSIN

CITY           SKY/WX    TMP DP  RH WIND       PRES   REMARKS
STURGEON BAY   PTSUNNY   61  41  48 N10G18    30.08R
MANITOWOC      NOT AVBL
SHEBOYGAN      CLOUDY    65  54  67 N13       30.04R
$$

LMZ563-521-522-541>543-041600-
LAKESHORE

STATION/POSITION TIME  TEMP    WIND        PRES    VSBY  WAVE
                       AIR SEA DIR/SP/G                  HT/PER
                 (UTC) (F)     (DEG/KT/KT) (MB)    (MI)  (FT/S)
SHEBOYGAN LKSHOR 1400   61     350/ 10/ 12 1016.6R
KEWAUNEE LKSHORE 1400   63     360/  8/ 14 1016.0R
NORTHPORT PIER   1400   55     310/ 12/ 15 1016.6R
SISTER BAY LKSHO 1400   56      10/ 10/ 11   N/A
CHAMBERS ISLAND  1400   56     320/  7/  8 1017.6R
MENOMINEE LKSHOR 1400   54     350/  8/  9 1017.9R
$$



USA.gov is the U.S. government's official web portal to all federal, state and local government web resources and services.